Location: Newark
(50.9243°N, 2.7593°W)
Time: 05:41:02
(UTC+00:00)

ISS - Visible Passes

Search period start: 18 January 2020 00:00
Search period end: 28 January 2020 00:00
Orbit: 415 x 421 km, 51.6° (Epoch: 18 January)

Date Brightness Start Highest point End Pass type
(mag) Time Alt. Az. Time Alt. Az. Time Alt. Az.
20 Jan -1.0 18:59:30 10° S 18:59:48 11° S 18:59:48 11° S visible
21 Jan -1.4 18:12:57 10° SSE 18:13:57 11° SE 18:14:05 11° SE visible
21 Jan -0.6 19:46:50 10° SW 19:47:02 11° SW 19:47:02 11° SW visible
22 Jan -2.2 18:59:07 10° SW 19:01:13 27° S 19:01:13 27° S visible
23 Jan -2.2 18:11:34 10° SSW 18:14:18 23° SE 18:15:21 20° ESE visible
23 Jan -0.9 19:47:22 10° WSW 19:48:17 17° WSW 19:48:17 17° WSW visible
24 Jan -1.6 17:24:18 10° S 17:26:27 16° SE 17:28:36 10° E visible
24 Jan -3.3 18:59:24 10° WSW 19:02:20 54° SSW 19:02:20 54° SSW visible
25 Jan -3.1 18:11:32 10° SW 18:14:45 44° SSE 18:16:20 25° E visible
25 Jan -1.1 19:48:03 10° W 19:49:16 20° W 19:49:16 20° W visible
26 Jan -2.5 17:23:47 10° SSW 17:26:49 31° SSE 17:29:51 10° E visible
26 Jan -3.8 19:00:00 10° WSW 19:03:14 81° WSW 19:03:14 81° WSW visible
27 Jan -3.7 18:11:57 10° WSW 18:15:19 75° SSE 18:17:09 25° E visible
27 Jan -1.2 19:48:46 10° W 19:50:05 22° W 19:50:05 22° W visible
